Regional Weather Roundup
Issued by NWS San Diego, CA

Home | Current Version | Previous Version | Text Only | Print | Product List | Glossary On
Versions: 1 2 3 4 5 6 7 8 9 10 11 12 13 14 15 16 17 18 19 20 21 22 23 24 25 26 27 28 29 30 31 32 33 34 35 36 37 38 39 40 41 42 43 44 45 46 47 48 49 50
868
ASUS46 KSGX 272111
RWRSGX

SAN DIEGO HOURLY WEATHER ROUNDUP
NATIONAL WEATHER SERVICE SAN DIEGO CA
200 PM PDT FRI MAY 27 2016

NOTE: "FAIR" INDICATES FEW OR NO CLOUDS BELOW 12,000 FEET WITH NO
SIGNIFICANT WEATHER AND/OR OBSTRUCTIONS TO VISIBILITY.

CAZ042-043-060-061-PZZ750-775-272200-

GREATER SAN DIEGO AREA

CITY           SKY/WX    TMP DP  RH WIND       PRES   REMARKS
LINDBERGH FLD  PTSUNNY   69  55  60 NW9       29.90F
POINT LOMA       N/A     69  55  60 W13         N/A
NATIONAL CITY    N/A     70  59  68 SW5       29.90F
CHULA VISTA      N/A     69  60  72 W3        29.82F
IMPERIAL BEACH PTSUNNY   70  55  59 W10       29.90F
BROWN FIELD    MOSUNNY   68  55  63 W9        29.89F
MIRAMAR MCAS   MOSUNNY   72  55  55 W8        29.88F
MONTGOMERY FLD PTSUNNY   69  54  58 W6        29.89F

$$

NORTH SAN DIEGO COUNTY

CITY           SKY/WX    TMP DP  RH WIND       PRES   REMARKS
CAMP PENDLETON SUNNY     70  56  61 SW8       29.88F
OCEANSIDE AP   SUNNY     69  55  60 W10       29.88F
OCEANSIDE HBR    N/A     64  59  83 W12       29.91F
VISTA            N/A     69  59  69 SW7       29.86F
CARLSBAD       PTSUNNY   66  56  70 W10       29.88F
DEL MAR          N/A     69  59  70 CALM      29.92F
LA JOLLA SCRIP   N/A     65  58  77 SW5       29.89F
FALLBROOK        N/A     74  60  62 W5        29.86F
ESCONDIDO        N/A     75  59  57 CALM      29.88F
SAN MARCOS       N/A     69  56  65 W12       29.86F
POWAY            N/A     74  59  58 SW3       29.89F

$$

EAST SAN DIEGO COUNTY

CITY           SKY/WX    TMP DP  RH WIND       PRES   REMARKS
RAMONA         SUNNY     75  55  49 NW8       29.88F
SANTEE LAKES     N/A     74  60  60 SW6       29.86F
LA MESA          N/A     69  57  67 NW6       29.82F
DESCANSO N       N/A     72  53  51 CALM      29.77F
MT. LAGUNA OBS   N/A     62  32  32 CALM      29.62F
CAMPO            N/A     77  50  38 SW14      29.85F

$$

ORANGE COUNTY AND THE LOS ANGELES BASIN

CITY           SKY/WX    TMP DP  RH WIND       PRES   REMARKS
JOHN WAYNE AP  MOSUNNY   69  54  58 SW10      29.88F
LAKE FOREST FR   N/A     76  55  47 W5        29.77F
HUNTINGTON BCH   N/A     70  59  69 W3        29.91F
LOS ALAMITOS   MOSUNNY   70  56  59 S8        29.88F
FULLERTON      SUNNY     73  54  51 S10       29.86F
LONG BEACH     SUNNY     69  54  58 S9        29.89F
L.A. AP        MOSUNNY   68  55  63 W12       29.89F
L.A. DOWNTOWN  SUNNY     72  56  57 VRB5      29.87F

$$

THE INLAND EMPIRE

CITY           SKY/WX    TMP DP  RH WIND       PRES   REMARKS
CORONA         SUNNY     78  56  46 W14G23    29.85F
CHINO          MOSUNNY   83  52  34 W14       29.86F
ONTARIO        MOSUNNY   79  50  36 SW13G21   29.85F
SAN BERNARDINO SUNNY     82  46  28 W10       29.85F
RIVERSIDE AP   SUNNY     81  50  33 W12       29.85F
MORENO VALLEY    N/A     81  56  41 SE3       27.98F
MARCH ARB      SUNNY     79  49  34 NW12      29.86F
HORSETHIEF CYN   N/A     79  48  33 NE12      29.88F
PERRIS           N/A     79  53  41 NW7       29.84F
HEMET EAST       N/A     79  45  30 SW5       29.76F
FRENCH VALLEY  FAIR      79  54  41 SW10G17   29.86F
TEMECULA         N/A     78  57  48 SW5       29.81F

$$

SAN BERNARDINO AND RIVERSIDE COUNTY MOUNTAINS

CITY           SKY/WX    TMP DP  RH WIND       PRES   REMARKS
BIG BEAR AP    SUNNY     63  28  27 E10       30.07F
ANGELUS OAKS     N/A     66  43  42 SW1       29.80F
PINE COVE        N/A     62  46  55 W2        29.86F

$$

SOUTHERN DESERT INCLUDING THE COACHELLA VALLEY

CITY           SKY/WX    TMP DP  RH WIND       PRES   REMARKS
PALM SPRINGS   MOSUNNY   91  36  14 VRB7      29.75
THOUSAND PALMS   N/A     95  40  15 SE8       29.74F
PALM DESERT      N/A     95  44  17 S5        31.04S
THERMAL        SUNNY     94  39  14 SE14G22   29.72F
BLYTHE         SUNNY     93  31  11 SE10      29.76F
IMPERIAL AP    SUNNY     93  39  15 W10       29.74F
EL CENTRO NAS  MOSUNNY   92  36  14 SE8       29.76F
YUMA AZ        SUNNY     91  38  15 S8G18     29.77
MEXICALI       SUNNY     91  30  11 CALM      29.77F

$$

UPPER DESERT

CITY           SKY/WX    TMP DP  RH WIND       PRES   REMARKS
VICTORVILLE AP MOSUNNY   82  28  14 S12G17    29.89F
HESPERIA         N/A     83  38  19 NW3       29.92F
PALMDALE       SUNNY     83  32  16 S8        29.87F
LANCASTER      SUNNY     85  31  14 MISG      29.86F
EDWARDS AFB    MOSUNNY   83  28  13 VRB6      29.84F
DAGGETT        SUNNY     86  31  13 E8        29.82F
29 PALMS N     MOSUNNY   86  24  10 VRB5      29.89F
NEEDLES        SUNNY     94  32  11 SE9       29.75F

$$

REGIONAL REPORTS

CITY           SKY/WX    TMP DP  RH WIND       PRES   REMARKS
SANTA BARBARA  SUNNY     67  54  63 SW9       29.90F
SANDBERG       MOSUNNY   74  39  28 VRB3      29.99F
LAS VEGAS NV   MOSUNNY   87  30  13 N6        29.77F
PHOENIX AZ     MOSUNNY   89  30  12 W10       29.77F
TIJUANA        MOSUNNY   66  52  59 NW7       29.91F
ENSENADA NW      N/A     65  32  29 W3        29.88F

$$

OFFSHORE ISLANDS

CITY           SKY/WX    TMP DP  RH WIND       PRES   REMARKS
CATALINA ARPT  SUNNY     66  54  65 N5        29.92F
SAN CLEMENTE I MOSUNNY   63  52  67 SW8       29.92F
SAN NICOLAS IS FAIR      60  53  77 NW12      29.92F

$$

MARINE AND OFFSHORE BUOY REPORTS

STATION/POSITION SKY/WX   TEMP    WIND        PRES    SWELL
                          AIR SEA DIR/SP/G            HT/PER/DIR
                          (F)     (DEG/KT/KT) (MB)    (FT/S/D)
TANNER BANKS               58 61  310/ 16/ 17 1013.4F   5/340/10
S CLEMENTE BASIN           59 64  270/  6/  6 1012.5F   5/290/ 8
SAN NICOLAS IS.               60                N/A     2/320/11
SO. S. ROSA ISLA           55 57  300/ 16/ 19 1013.4F   5/310/ 9
W. S. BARBARA CH           54 53  320/ 14/ 17 1013.0F   5/320/10
M. S. BARBARA CH           57 59  240/  8/ 10 1013.9F
S. MONICA BASIN            61 63  250/  6/  8 1012.8F   2/270/ 6
S PEDRO CHANNEL               65                N/A
OCEANSIDE OFFSHR              65                N/A     2/210/15
TORREY PINES OTR              66                N/A     2/220/15
LA JOLLA 1                 64 67  290/  5/  8 1012.8F
SAN DIEGO BAY                 69              1013.0F
POINT LOMA SOUTH              66                N/A     2/200/14

$$





USA.gov is the U.S. government's official web portal to all federal, state and local government web resources and services.